• Join FlightAware (Why Join?)
  • Login
  • US Flag 
11:11PM EDT


 

Airport Tracker/Info


-or-


 

Live Flight TrackerFlight Track Log ✈ AAL2007 ✈ 01-Aug-2013 ✈ KORD - KAUS

Flight Track Log - Related Links

Times and Time Zones

All times are in EDT time to prevent confusion due to time zone crossing. See the AAL2007 flight status page for this flight to view local times or setup timezone preferences in your user account.

Time Position Orientation Groundspeed Altitude Reporting Facility
EDT Latitude Longitude Course Direction KTS MPH feet Rate Location/Type
06:06PM 41.9000 -87.9500 194° South 188 216 3,500  Level Chicago TRACON
06:08PM 41.6963 -88.1923 201° Southwest  Level Estimated
06:08PM 41.8056 -87.9647 187° South 256 295 6,400  Level Chicago Center
06:09PM 41.6010 -88.2869 197° South  Level Estimated
06:09PM 41.7267 -87.9844 191° South 291 335 8,900  Level Chicago Center
06:10PM 41.5057 -88.3812 194° South  Level Estimated
06:10PM 41.6531 -88.0333 206° Southwest 296 341 11,700  Level Chicago Center
06:11PM 41.4102 -88.4753 207° Southwest  Level Estimated
06:11PM 41.5719 -88.0778 202° Southwest 313 360 14,200  Level Chicago Center
06:12PM 41.3196 -88.5643 194° South  Level Estimated
06:12PM 41.4769 -88.1378 205° Southwest 321 369 16,800  Level Chicago Center
06:13PM 41.3886 -88.1892 204° Southwest 363 418 17,900 1,020 Climbing Chicago Center
06:14PM 41.2831 -88.2333 197° South 405 466 19,000 1,440 Climbing Chicago Center
06:15PM 41.1717 -88.2844 199° South 425 489 20,900 1,920 Climbing Chicago Center
06:16PM 41.0333 -88.3483 199° South 439 505 23,000 1,800 Climbing Chicago Center
06:17PM 40.9150 -88.4003 198° South 448 516 24,700 1,500 Climbing Chicago Center
06:18PM 40.7961 -88.4606 201° Southwest 460 529 26,100 1,200 Climbing Chicago Center
06:19PM 40.7092 -88.5733 225° Southwest 437 503 27,300 1,200 Climbing Chicago Center
06:20PM 40.6122 -88.6772 219° Southwest 450 518 28,700 1,620 Climbing Chicago Center
06:21PM 40.4933 -88.8019 219° Southwest 457 526 30,700 1,620 Climbing Chicago Center
06:22PM 40.4117 -88.8861 218° Southwest 445 512 32,100 1,200 Climbing Chicago Center
06:23PM 40.2967 -89.0064 219° Southwest 440 506 33,300 840 Climbing Chicago Center
06:25PM 40.2025 -89.1058 219° Southwest 436 502 33,900 300 Climbing Chicago Center
06:25PM 40.1239 -89.1867 218° Southwest 437 503 34,000  Climbing Kansas City Center
06:26PM 40.0472 -89.2675 219° Southwest 438 504 34,000  Level Kansas City Center
06:28PM 39.9131 -89.4078 219° Southwest 439 505 34,000  Level Kansas City Center
06:29PM 39.8164 -89.5069 218° Southwest 440 506 34,000  Level Kansas City Center
06:30PM 39.7203 -89.6078 219° Southwest 442 509 34,000  Level Kansas City Center
06:31PM 39.6261 -89.7028 218° Southwest 442 509 34,000  Level Kansas City Center
06:32PM 39.5300 -89.8036 219° Southwest 444 511 34,000  Level Kansas City Center
06:33PM 39.4147 -89.9208 218° Southwest 442 509 34,000  Level Kansas City Center
06:34PM 39.3181 -90.0197 218° Southwest 442 509 34,000  Level Kansas City Center
06:35PM 39.2208 -90.1189 218° Southwest 445 512 34,000  Level Kansas City Center
06:36PM 39.1239 -90.2172 218° Southwest 446 513 34,000  Level Kansas City Center
06:37PM 39.0283 -90.3150 218° Southwest 443 510 34,000  Level Kansas City Center
06:38PM 38.9244 -90.4192 218° Southwest 439 505 34,000  Level Kansas City Center
06:39PM 38.8294 -90.5192 219° Southwest 439 505 34,000  Level Kansas City Center
06:40PM 38.7350 -90.6231 221° Southwest 440 506 34,000  Level Kansas City Center
06:41PM 38.6408 -90.7358 223° Southwest 437 503 34,000  Level Kansas City Center
06:42PM 38.5503 -90.8406 222° Southwest 441 507 34,000  Level Kansas City Center
06:43PM 38.4408 -90.9661 222° Southwest 446 513 34,000  Level Kansas City Center
06:44PM 38.3494 -91.0697 222° Southwest 442 509 34,000  Level Kansas City Center
06:45PM 38.2575 -91.1736 222° Southwest 441 507 34,000  Level Kansas City Center
06:46PM 38.1639 -91.2792 222° Southwest 447 514 34,000  Level Kansas City Center
06:47PM 38.0717 -91.3817 221° Southwest 445 512 34,000  Level Kansas City Center
06:48PM 37.9608 -91.5089 222° Southwest 445 512 34,000  Level Kansas City Center
06:49PM 37.8672 -91.6153 222° Southwest 448 516 34,000  Level Kansas City Center
06:50PM 37.7717 -91.7214 221° Southwest 450 518 34,000  Level Kansas City Center
06:51PM 37.6750 -91.8289 221° Southwest 456 525 34,000  Level Kansas City Center
06:52PM 37.5800 -91.9356 222° Southwest 455 524 34,000  Level Kansas City Center
06:53PM 37.4864 -92.0394 221° Southwest 448 516 34,000  Level Kansas City Center
06:54PM 37.3936 -92.1439 222° Southwest 445 512 34,000  Level Kansas City Center
06:55PM 37.2989 -92.2461 221° Southwest 445 512 34,000  Level Kansas City Center
06:56PM 37.1889 -92.3678 221° Southwest 440 506 34,000  Level Kansas City Center
06:57PM 37.0936 -92.4706 221° Southwest 442 509 34,000  Level Kansas City Center
06:59PM 36.9986 -92.5742 221° Southwest 446 513 34,000  Level Kansas City Center
07:00PM 36.9033 -92.6781 221° Southwest 449 517 34,000  Level Kansas City Center
07:01PM 36.8083 -92.7808 221° Southwest 450 518 34,000  Level Kansas City Center
07:02PM 36.7119 -92.8814 220° Southwest 452 520 34,000  Level Kansas City Center
07:03PM 36.6153 -92.9808 220° Southwest 452 520 34,000  Level Kansas City Center
07:04PM 36.5047 -93.0986 221° Southwest 450 518 34,000  Level Kansas City Center
07:05PM 36.4106 -93.2003 221° Southwest 451 519 34,000  Level Kansas City Center
07:06PM 36.3144 -93.3036 221° Southwest 456 525 34,000  Level Kansas City Center
07:07PM 36.1981 -93.4278 221° Southwest 461 531 34,000  Level Memphis Center
07:08PM 36.1036 -93.5297 221° Southwest 461 531 34,000  Level Memphis Center
07:09PM 36.0072 -93.6286 220° Southwest 461 531 34,000  Level Memphis Center
07:10PM 35.9128 -93.7300 221° Southwest 461 531 34,000  Level Memphis Center
07:11PM 35.8164 -93.8283 220° Southwest 461 531 34,000  Level Memphis Center
07:12PM 35.7217 -93.9292 221° Southwest 461 531 34,000  Level Memphis Center
07:13PM 35.6250 -94.0272 220° Southwest 461 531 34,000  Level Memphis Center
07:14PM 35.5283 -94.1275 220° Southwest 461 531 34,000  Level Memphis Center
07:15PM 35.4314 -94.2250 219° Southwest 461 531 34,000  Level Memphis Center
07:16PM 35.3283 -94.3169 216° Southwest 461 531 34,000  Level Memphis Center
07:17PM 35.2214 -94.4008 213° Southwest 461 531 34,000  Level Memphis Center
07:18PM 35.1125 -94.4794 211° Southwest 461 531 34,000  Level Memphis Center
07:19PM 35.0356 -94.5458 215° Southwest 466 536 34,000  Level Fort Worth Center
07:20PM 34.9269 -94.6278 212° Southwest 471 542 34,000  Level Fort Worth Center
07:21PM 34.8100 -94.7125 211° Southwest 465 535 34,000  Level Fort Worth Center
07:22PM 34.7011 -94.7994 213° Southwest 465 535 34,000  Level Fort Worth Center
07:23PM 34.5942 -94.8783 211° Southwest 465 535 34,000  Level Fort Worth Center
07:24PM 34.4894 -94.9569 212° Southwest 465 535 34,000  Level Fort Worth Center
07:25PM 34.3783 -95.0431 213° Southwest 465 535 34,000  Level Fort Worth Center
07:26PM 34.2694 -95.1217 211° Southwest 465 535 34,000  Level Fort Worth Center
07:27PM 34.1581 -95.2022 211° Southwest 465 535 34,000  Level Fort Worth Center
07:28PM 34.0508 -95.2828 212° Southwest 465 535 34,000  Level Fort Worth Center
07:29PM 33.9417 -95.3631 211° Southwest 465 535 34,000  Level Fort Worth Center
07:30PM 33.8344 -95.4406 211° Southwest 465 535 34,000  Level Fort Worth Center
07:31PM 33.7272 -95.5228 213° Southwest 465 535 34,000  Level Fort Worth Center
07:32PM 33.6300 -95.5897 210° Southwest 460 529 34,000  Level Fort Worth Center
07:33PM 33.5225 -95.6667 211° Southwest 460 529 34,000  Level Fort Worth Center
07:34PM 33.4131 -95.7461 211° Southwest 460 529 34,000  Level Fort Worth Center
07:35PM 33.3075 -95.8228 211° Southwest 460 529 34,000  Level Fort Worth Center
07:36PM 33.1981 -95.9017 211° Southwest 465 535 34,000  Level Fort Worth Center
07:37PM 33.0883 -95.9803 211° Southwest 465 535 34,000  Level Fort Worth Center
07:38PM 32.9806 -96.0589 211° Southwest 465 535 34,000  Level Fort Worth Center
07:39PM 32.8750 -96.1347 211° Southwest 465 535 34,000  Level Fort Worth Center
07:40PM 32.7631 -96.2128 210° Southwest 465 535 34,000  Level Fort Worth Center
07:41PM 32.6550 -96.2931 212° Southwest 465 535 34,000  Level Fort Worth Center
07:42PM 32.5450 -96.3683 210° Southwest 465 535 34,000  Level Fort Worth Center
07:43PM 32.4247 -96.4536 211° Southwest 465 535 34,000  Level Fort Worth Center
07:44PM 32.3147 -96.5333 211° Southwest 465 535 34,000  Level Fort Worth Center
07:45PM 32.2067 -96.6106 211° Southwest 465 535 34,000  Level Fort Worth Center
07:46PM 32.1006 -96.6875 212° Southwest 460 529 34,000  Level Fort Worth Center
07:47PM 31.9903 -96.7642 211° Southwest 460 529 34,000 -300 Level Fort Worth Center
07:48PM 31.8822 -96.8358 209° Southwest 458 527 33,500 -1,080 Descending Fort Worth Center
07:48PM 31.8294 -96.8753 212° Southwest 457 526 32,300 -2,280 Descending Houston Center
07:49PM 31.7167 -96.9531 210° Southwest 463 533 29,900 -2,520 Descending Houston Center
07:50PM 31.6028 -97.0331 211° Southwest 469 540 27,200 -2,580 Descending Houston Center
07:51PM 31.4850 -97.1019 207° Southwest 470 541 24,600 -2,640 Descending Houston Center
07:52PM 31.3422 -97.1564 198° South 460 529 21,800 -2,460 Descending Houston Center
07:53PM 31.2261 -97.2014 198° South 442 509 19,600 -2,100 Descending Houston Center
07:54PM 31.1156 -97.2453 199° South 423 487 17,500 -2,040 Descending Houston Center
07:55PM 31.0086 -97.2869 198° South 411 473 15,500 -1,860 Descending Houston Center
07:56PM 30.9075 -97.3269 199° South 403 464 13,800 -1,740 Descending Houston Center
07:58PM 30.7917 -97.3708 198° South 376 433 12,000 -1,500 Descending Houston Center
07:59PM 30.7092 -97.4333 213° Southwest 353 406 10,800 -1,260 Descending Houston Center
08:00PM 30.6378 -97.4919 215° Southwest 322 371 9,500 -1,800 Descending Houston Center
08:01PM 30.5672 -97.5433 212° Southwest 302 348 7,100 -2,040 Descending Houston Center
08:02PM 30.4967 -97.5781 203° Southwest 280 322 5,300 -1,620 Descending Houston Center
08:02PM 30.4614 -97.5947 202° Southwest 233 268 4,600 -1,560 Descending Houston Center
08:03PM 30.4375 -97.6078 205° Southwest 239 275 3,700 -1,080 Descending Houston Center
08:04PM 30.3781 -97.6378 204° Southwest 231 266 3,000 -540 Descending Houston Center
08:05PM 30.3119 -97.6717 204° Southwest 223 257 2,600 -840 Descending Houston Center
08:06PM 30.2608 -97.6808 189° South 202 232 1,400 -840 Descending Houston Center
08:07PM 30.2197 -97.6797 179° South 177 204 1,000 -420 Descending Houston Center